ANA669 RJTT-RJFU

Flight info

Callsign ANA669
Flight time 1h 34m
Altitude 30000
Route GUSRO Y20 KAMMY Y204 OHGIE
Aircraft B738/M-SDE2E3FGHIRWXY/LB1

Departure

Time 2026-04-22 11:15
Airport Tokyo Haneda International Airport (RJTT)

Arrival

Time 2026-04-22 12:50
Airport Nagasaki Airport (RJFU)
Time Latitude Longitude Altitude Speed Heading
2026-04-22 10:51 35.55585 139.78796 32 ft 0 kts 150°
2026-04-22 11:02 35.55601 139.78786 30 ft 4 kts 150°
2026-04-22 11:02 35.55620 139.78772 29 ft 4 kts 154°
2026-04-22 11:02 35.55644 139.78766 26 ft 4 kts 203°
2026-04-22 11:03 35.55664 139.78785 27 ft 4 kts 236°
2026-04-22 11:03 35.55678 139.78812 24 ft 4 kts 239°
2026-04-22 11:03 35.55690 139.78839 26 ft 4 kts 251°
2026-04-22 11:03 35.55694 139.78870 27 ft 4 kts 276°
2026-04-22 11:04 35.55687 139.78901 26 ft 4 kts 303°
2026-04-22 11:04 35.55670 139.78925 29 ft 4 kts 327°
2026-04-22 11:04 35.55665 139.78928 28 ft 0 kts 330°
2026-04-22 11:09 35.55667 139.78927 28 ft 1 kts 330°
2026-04-22 11:09 35.55702 139.78902 25 ft 11 kts 329°
2026-04-22 11:09 35.55780 139.78846 23 ft 13 kts 329°
2026-04-22 11:10 35.55859 139.78790 24 ft 13 kts 330°
2026-04-22 11:10 35.55936 139.78736 22 ft 13 kts 329°
2026-04-22 11:10 35.56011 139.78683 22 ft 12 kts 330°
2026-04-22 11:10 35.56087 139.78628 24 ft 14 kts 330°
2026-04-22 11:11 35.56177 139.78565 24 ft 16 kts 330°
2026-04-22 11:11 35.56283 139.78490 25 ft 19 kts 329°
2026-04-22 11:11 35.56329 139.78361 26 ft 19 kts 247°
2026-04-22 11:11 35.56264 139.78224 24 ft 18 kts 239°
2026-04-22 11:12 35.56201 139.78092 24 ft 18 kts 240°
2026-04-22 11:12 35.56142 139.77963 28 ft 17 kts 239°
2026-04-22 11:12 35.56084 139.77841 26 ft 16 kts 239°
2026-04-22 11:12 35.56028 139.77724 24 ft 16 kts 240°
2026-04-22 11:13 35.55974 139.77611 22 ft 15 kts 239°
2026-04-22 11:13 35.55921 139.77502 21 ft 14 kts 239°
2026-04-22 11:13 35.55873 139.77397 22 ft 14 kts 240°
2026-04-22 11:13 35.55808 139.77310 23 ft 14 kts 217°
2026-04-22 11:14 35.55731 139.77244 22 ft 13 kts 215°
2026-04-22 11:14 35.55655 139.77183 23 ft 13 kts 197°
2026-04-22 11:14 35.55571 139.77210 25 ft 13 kts 151°
2026-04-22 11:14 35.55492 139.77266 22 ft 18 kts 150°
2026-04-22 11:15 35.55183 139.77485 21 ft 86 kts 150°
2026-04-22 11:15 35.54474 139.77989 23 ft 147 kts 147°
2026-04-22 11:15 35.53544 139.78714 428 ft 164 kts 150°
2026-04-22 11:15 35.52570 139.79433 1288 ft 159 kts 157°
2026-04-22 11:16 35.51573 139.80109 2000 ft 167 kts 157°
2026-04-22 11:16 35.50551 139.80813 2715 ft 172 kts 157°
2026-04-22 11:16 35.49475 139.81559 3303 ft 185 kts 155°
2026-04-22 11:16 35.48246 139.82292 3593 ft 208 kts 171°
2026-04-22 11:17 35.46825 139.82107 3772 ft 219 kts 212°
2026-04-22 11:17 35.45800 139.80671 3975 ft 240 kts 250°
2026-04-22 11:17 35.45371 139.78628 4520 ft 254 kts 256°
2026-04-22 11:17 35.44987 139.76486 5274 ft 260 kts 266°
2026-04-22 11:18 35.45279 139.74302 6038 ft 264 kts 294°
2026-04-22 11:18 35.46342 139.72494 6967 ft 264 kts 317°
2026-04-22 11:18 35.47952 139.71353 7637 ft 276 kts 341°
2026-04-22 11:18 35.49862 139.70918 8438 ft 280 kts 348°
2026-04-22 11:19 35.51803 139.70560 9220 ft 284 kts 348°
2026-04-22 11:19 35.53760 139.70197 9929 ft 290 kts 347°
2026-04-22 11:19 35.55720 139.69584 10451 ft 295 kts 327°
2026-04-22 11:19 35.57262 139.67894 10617 ft 306 kts 299°
2026-04-22 11:20 35.58320 139.65537 10806 ft 326 kts 293°
2026-04-22 11:20 35.59357 139.62964 10974 ft 347 kts 293°
2026-04-22 11:20 35.60450 139.60235 11146 ft 365 kts 293°
2026-04-22 11:20 35.61603 139.57397 11600 ft 374 kts 293°
2026-04-22 11:21 35.62765 139.54581 12283 ft 375 kts 292°
2026-04-22 11:21 35.63964 139.51689 13027 ft 375 kts 292°
2026-04-22 11:21 35.65116 139.48859 13740 ft 374 kts 288°
2026-04-22 11:21 35.65779 139.45816 14294 ft 367 kts 272°
2026-04-22 11:22 35.65864 139.42687 14855 ft 367 kts 268°
2026-04-22 11:22 35.65886 139.39531 15407 ft 369 kts 268°
2026-04-22 11:22 35.65908 139.36365 15912 ft 372 kts 269°
2026-04-22 11:22 35.65938 139.33177 16412 ft 374 kts 269°
2026-04-22 11:23 35.65976 139.29965 16906 ft 376 kts 270°
2026-04-22 11:23 35.66019 139.26754 17014 ft 374 kts 270°
2026-04-22 11:23 35.66064 139.23535 17129 ft 380 kts 270°
2026-04-22 11:23 35.66111 139.20318 17570 ft 381 kts 270°
2026-04-22 11:24 35.66155 139.17099 18441 ft 370 kts 270°
2026-04-22 11:24 35.66195 139.14014 19381 ft 355 kts 270°
2026-04-22 11:24 35.66156 139.10989 19920 ft 354 kts 267°
2026-04-22 11:24 35.66027 139.07953 20273 ft 357 kts 266°
2026-04-22 11:25 35.65873 139.04887 20523 ft 362 kts 266°
2026-04-22 11:25 35.65714 139.01786 20872 ft 364 kts 266°
2026-04-22 11:25 35.65559 138.98673 21272 ft 366 kts 266°
2026-04-22 11:25 35.65410 138.95539 21631 ft 368 kts 266°
2026-04-22 11:26 35.65266 138.92395 21969 ft 369 kts 266°
2026-04-22 11:26 35.65123 138.89276 22307 ft 371 kts 266°
2026-04-22 11:26 35.64980 138.86096 22611 ft 373 kts 266°
2026-04-22 11:26 35.64834 138.82898 22861 ft 377 kts 266°
2026-04-22 11:27 35.64686 138.79667 23159 ft 379 kts 266°
2026-04-22 11:27 35.64537 138.76431 23626 ft 377 kts 267°
2026-04-22 11:27 35.64377 138.73220 23963 ft 377 kts 266°
2026-04-22 11:27 35.64232 138.69994 24176 ft 380 kts 267°
2026-04-22 11:28 35.64085 138.66746 24410 ft 382 kts 266°
2026-04-22 11:28 35.63929 138.63528 24652 ft 383 kts 266°
2026-04-22 11:28 35.63760 138.60247 24859 ft 386 kts 266°
2026-04-22 11:28 35.63586 138.56953 25125 ft 386 kts 266°
2026-04-22 11:29 35.63412 138.53651 25404 ft 387 kts 266°
2026-04-22 11:29 35.63237 138.50351 25655 ft 388 kts 266°
2026-04-22 11:29 35.63062 138.47039 25887 ft 389 kts 266°
2026-04-22 11:29 35.62886 138.43719 26100 ft 390 kts 266°
2026-04-22 11:30 35.62708 138.40379 26190 ft 395 kts 266°
2026-04-22 11:30 35.62530 138.37043 26372 ft 396 kts 266°
2026-04-22 11:30 35.62349 138.33674 26710 ft 394 kts 266°
2026-04-22 11:30 35.62167 138.30309 26977 ft 395 kts 266°
2026-04-22 11:31 35.61986 138.26942 27160 ft 396 kts 266°
2026-04-22 11:31 35.61801 138.23565 27434 ft 395 kts 266°
2026-04-22 11:31 35.61616 138.20195 27654 ft 397 kts 266°
2026-04-22 11:31 35.61427 138.16798 27852 ft 399 kts 266°
2026-04-22 11:32 35.61238 138.13405 28221 ft 396 kts 266°
2026-04-22 11:32 35.61053 138.10081 28585 ft 393 kts 266°
2026-04-22 11:32 35.60899 138.06734 28875 ft 393 kts 266°
2026-04-22 11:32 35.60704 138.03385 29102 ft 394 kts 266°
2026-04-22 11:33 35.60500 138.00020 29332 ft 395 kts 266°
2026-04-22 11:33 35.60301 137.96649 29570 ft 395 kts 266°
2026-04-22 11:33 35.60103 137.93293 29916 ft 393 kts 266°
2026-04-22 11:33 35.59908 137.89954 30273 ft 390 kts 266°
2026-04-22 11:34 35.59715 137.86640 30570 ft 388 kts 266°
2026-04-22 11:34 35.59524 137.83340 30812 ft 385 kts 266°
2026-04-22 11:34 35.59333 137.80070 31109 ft 383 kts 266°
2026-04-22 11:34 35.59126 137.76875 31457 ft 379 kts 266°
2026-04-22 11:35 35.58886 137.73667 31953 ft 373 kts 265°
2026-04-22 11:35 35.58390 137.67250 32035 ft 382 kts 265°
2026-04-22 11:36 35.57892 137.60694 32035 ft 389 kts 265°
2026-04-22 11:36 35.57376 137.54037 32022 ft 393 kts 264°
2026-04-22 11:37 35.56154 137.47502 32026 ft 396 kts 257°
2026-04-22 11:37 35.54712 137.40969 32005 ft 397 kts 258°
2026-04-22 11:38 35.53290 137.34429 32002 ft 396 kts 258°
2026-04-22 11:38 35.51397 137.25749 32014 ft 395 kts 258°
2026-04-22 11:39 35.49729 137.18195 31998 ft 395 kts 257°
2026-04-22 11:39 35.48286 137.11710 31989 ft 394 kts 257°
2026-04-22 11:40 35.47084 137.06317 31988 ft 394 kts 257°
2026-04-22 11:40 35.45407 136.98800 32009 ft 392 kts 257°
2026-04-22 11:41 35.43968 136.92371 31985 ft 391 kts 257°
2026-04-22 11:41 35.42759 136.86984 31983 ft 390 kts 257°
2026-04-22 11:42 35.41327 136.80615 31985 ft 390 kts 257°
2026-04-22 11:42 35.39882 136.74209 31972 ft 390 kts 257°
2026-04-22 11:43 35.38435 136.67805 31989 ft 390 kts 257°
2026-04-22 11:43 35.36983 136.61399 31986 ft 390 kts 257°
2026-04-22 11:44 35.35538 136.55042 31977 ft 390 kts 257°
2026-04-22 11:44 35.34080 136.48644 31989 ft 390 kts 257°
2026-04-22 11:45 35.32616 136.42238 31975 ft 391 kts 257°
2026-04-22 11:45 35.31159 136.35830 31962 ft 391 kts 257°
2026-04-22 11:46 35.29697 136.29462 31975 ft 392 kts 257°
2026-04-22 11:46 35.28220 136.23036 31976 ft 393 kts 257°
2026-04-22 11:47 35.26740 136.16605 31961 ft 392 kts 257°
2026-04-22 11:47 35.25262 136.10197 31977 ft 391 kts 257°
2026-04-22 11:48 35.23780 136.03790 31982 ft 391 kts 257°
2026-04-22 11:48 35.22307 135.97437 31980 ft 391 kts 257°
2026-04-22 11:49 35.20821 135.91043 31948 ft 390 kts 257°
2026-04-22 11:49 35.19346 135.84712 31994 ft 388 kts 257°
2026-04-22 11:50 35.17924 135.78326 31986 ft 390 kts 260°
2026-04-22 11:50 35.16840 135.71878 31970 ft 390 kts 261°
2026-04-22 11:51 35.15759 135.65382 31988 ft 391 kts 261°
2026-04-22 11:51 35.14663 135.58871 31985 ft 390 kts 260°
2026-04-22 11:52 35.13560 135.52372 31970 ft 391 kts 260°
2026-04-22 11:52 35.12458 135.45919 31987 ft 391 kts 260°
2026-04-22 11:53 35.11345 135.39421 31987 ft 390 kts 260°
2026-04-22 11:53 35.10232 135.32933 31980 ft 390 kts 260°
2026-04-22 11:54 35.09118 135.26465 31983 ft 390 kts 260°
2026-04-22 11:54 35.08010 135.19983 31982 ft 389 kts 260°
2026-04-22 11:55 35.06911 135.13557 31973 ft 389 kts 260°
2026-04-22 11:55 35.05801 135.07088 31986 ft 389 kts 260°
2026-04-22 11:56 35.04687 135.00621 31989 ft 390 kts 260°
2026-04-22 11:56 35.03569 134.94160 31984 ft 390 kts 260°
2026-04-22 11:57 35.02443 134.87732 31978 ft 389 kts 260°
2026-04-22 11:57 35.01298 134.81280 31963 ft 389 kts 260°
2026-04-22 11:58 35.00155 134.74840 31965 ft 389 kts 260°
2026-04-22 11:58 34.98980 134.68390 31977 ft 391 kts 257°
2026-04-22 11:59 34.97380 134.62091 31980 ft 392 kts 255°
2026-04-22 11:59 34.95716 134.55756 31996 ft 393 kts 255°
2026-04-22 12:00 34.94057 134.49405 31954 ft 393 kts 255°
2026-04-22 12:00 34.92400 134.43056 31981 ft 393 kts 255°
2026-04-22 12:01 34.90754 134.36754 31985 ft 394 kts 255°
2026-04-22 12:01 34.89096 134.30406 31971 ft 393 kts 255°
2026-04-22 12:02 34.87434 134.24060 31957 ft 393 kts 255°
2026-04-22 12:02 34.85769 134.17715 31987 ft 394 kts 255°
2026-04-22 12:03 34.84097 134.11365 31991 ft 394 kts 255°
2026-04-22 12:03 34.82429 134.05041 31976 ft 395 kts 255°
2026-04-22 12:04 34.80749 133.98687 31945 ft 395 kts 255°
2026-04-22 12:04 34.79063 133.92326 31955 ft 395 kts 254°
2026-04-22 12:05 34.77384 133.86008 31978 ft 395 kts 254°
2026-04-22 12:05 34.75691 133.79654 31971 ft 395 kts 254°
2026-04-22 12:06 34.73996 133.73300 31944 ft 395 kts 254°
2026-04-22 12:06 34.72297 133.66948 31958 ft 395 kts 254°
2026-04-22 12:07 34.70597 133.60608 31999 ft 394 kts 254°
2026-04-22 12:07 34.68901 133.54305 31983 ft 395 kts 254°
2026-04-22 12:08 34.67190 133.47954 31978 ft 396 kts 253°
2026-04-22 12:08 34.65472 133.41595 32009 ft 397 kts 254°
2026-04-22 12:09 34.63749 133.35231 32007 ft 397 kts 253°
2026-04-22 12:09 34.62022 133.28867 32008 ft 397 kts 253°
2026-04-22 12:10 34.60302 133.22538 32020 ft 397 kts 253°
2026-04-22 12:10 34.58567 133.16175 31988 ft 398 kts 253°
2026-04-22 12:11 34.56822 133.09785 31998 ft 398 kts 253°
2026-04-22 12:11 34.55087 133.03453 32004 ft 399 kts 253°
2026-04-22 12:12 34.53337 132.97074 32008 ft 398 kts 253°
2026-04-22 12:12 34.51584 132.90704 32003 ft 398 kts 253°
2026-04-22 12:13 34.49830 132.84340 31996 ft 398 kts 253°
2026-04-22 12:13 34.48088 132.78031 31993 ft 397 kts 253°
2026-04-22 12:14 34.46328 132.71682 32002 ft 397 kts 253°
2026-04-22 12:14 34.44564 132.65342 31991 ft 397 kts 252°
2026-04-22 12:15 34.42796 132.59006 32001 ft 398 kts 253°
2026-04-22 12:15 34.41024 132.52665 32004 ft 398 kts 253°
2026-04-22 12:16 34.39253 132.46337 31990 ft 399 kts 253°
2026-04-22 12:16 34.37469 132.39981 31989 ft 399 kts 252°
2026-04-22 12:17 34.35682 132.33626 31995 ft 399 kts 252°
2026-04-22 12:17 34.33893 132.27276 31989 ft 399 kts 252°
2026-04-22 12:18 34.32111 132.20967 31995 ft 399 kts 252°
2026-04-22 12:18 34.30315 132.14625 31994 ft 399 kts 252°
2026-04-22 12:19 34.28514 132.08282 31983 ft 399 kts 252°
2026-04-22 12:19 34.26707 132.01926 31979 ft 400 kts 252°
2026-04-22 12:20 34.24895 131.95565 31997 ft 401 kts 252°
2026-04-22 12:20 34.23093 131.89255 31971 ft 400 kts 252°
2026-04-22 12:21 34.21272 131.82898 31982 ft 399 kts 251°
2026-04-22 12:21 34.19451 131.76548 31993 ft 400 kts 252°
2026-04-22 12:22 34.17624 131.70195 31983 ft 401 kts 251°
2026-04-22 12:22 34.15793 131.63843 31979 ft 401 kts 251°
2026-04-22 12:23 34.13971 131.57533 31944 ft 400 kts 251°
2026-04-22 12:23 34.12131 131.51176 31965 ft 401 kts 251°
2026-04-22 12:24 34.10292 131.44836 31945 ft 401 kts 251°
2026-04-22 12:24 34.08450 131.38497 31948 ft 401 kts 251°
2026-04-22 12:25 34.06601 131.32187 31955 ft 401 kts 250°
2026-04-22 12:25 34.04213 131.26109 31932 ft 403 kts 244°
2026-04-22 12:26 34.01651 131.20096 31963 ft 404 kts 244°
2026-04-22 12:26 33.99113 131.14056 31947 ft 404 kts 245°
2026-04-22 12:27 33.96596 131.08025 31843 ft 399 kts 245°
2026-04-22 12:27 33.95362 131.05071 31170 ft 398 kts 244°
2026-04-22 12:27 33.94118 131.02093 30355 ft 400 kts 244°
2026-04-22 12:28 33.92867 130.99095 29490 ft 403 kts 244°
2026-04-22 12:28 33.91603 130.96065 28599 ft 405 kts 245°
2026-04-22 12:28 33.90337 130.93032 27777 ft 406 kts 245°
2026-04-22 12:28 33.89081 130.90025 27222 ft 401 kts 245°
2026-04-22 12:29 33.87831 130.87038 26633 ft 397 kts 245°
2026-04-22 12:29 33.86598 130.84092 26056 ft 393 kts 245°
2026-04-22 12:29 33.85389 130.81206 25486 ft 389 kts 245°
2026-04-22 12:29 33.84160 130.78273 24911 ft 387 kts 245°
2026-04-22 12:30 33.81764 130.72564 23772 ft 384 kts 245°
2026-04-22 12:30 33.80560 130.69698 23132 ft 382 kts 245°
2026-04-22 12:30 33.79362 130.66850 22527 ft 380 kts 245°
2026-04-22 12:31 33.78177 130.64035 21959 ft 377 kts 245°
2026-04-22 12:31 33.76996 130.61235 21388 ft 374 kts 245°
2026-04-22 12:31 33.75826 130.58458 20825 ft 371 kts 245°
2026-04-22 12:31 33.74663 130.55697 20257 ft 369 kts 244°
2026-04-22 12:32 33.73521 130.52993 19738 ft 366 kts 244°
2026-04-22 12:32 33.71222 130.47551 18635 ft 364 kts 244°
2026-04-22 12:32 33.70076 130.44845 18078 ft 363 kts 243°
2026-04-22 12:33 33.68900 130.42168 17477 ft 362 kts 239°
2026-04-22 12:33 33.67341 130.39811 16930 ft 361 kts 227°
2026-04-22 12:33 33.65479 130.37832 16587 ft 356 kts 219°
2026-04-22 12:33 33.63373 130.36299 16254 ft 364 kts 211°
2026-04-22 12:34 33.61094 130.34902 15914 ft 372 kts 210°
2026-04-22 12:34 33.58770 130.33500 15548 ft 375 kts 210°
2026-04-22 12:34 33.56450 130.32100 15189 ft 372 kts 210°
2026-04-22 12:34 33.54147 130.30703 14838 ft 369 kts 210°
2026-04-22 12:35 33.51866 130.29308 14466 ft 367 kts 211°
2026-04-22 12:35 33.49602 130.27936 14140 ft 364 kts 210°
2026-04-22 12:35 33.47376 130.26523 13791 ft 362 kts 211°
2026-04-22 12:35 33.45181 130.25069 13406 ft 358 kts 215°
2026-04-22 12:36 33.42982 130.23676 13106 ft 359 kts 206°
2026-04-22 12:36 33.40724 130.22531 12815 ft 357 kts 208°
2026-04-22 12:36 33.38508 130.21197 12470 ft 356 kts 210°
2026-04-22 12:36 33.36333 130.19830 12124 ft 349 kts 210°
2026-04-22 12:37 33.34203 130.18508 11802 ft 341 kts 208°
2026-04-22 12:37 33.31948 130.17686 11467 ft 340 kts 191°
2026-04-22 12:37 33.29600 130.17519 11167 ft 334 kts 186°
2026-04-22 12:37 33.27319 130.17420 11053 ft 321 kts 186°
2026-04-22 12:38 33.25141 130.17305 11018 ft 306 kts 187°
2026-04-22 12:38 33.23088 130.17186 11014 ft 292 kts 187°
2026-04-22 12:38 33.21115 130.17066 10975 ft 276 kts 187°
2026-04-22 12:38 33.19245 130.16950 10749 ft 264 kts 188°
2026-04-22 12:39 33.17420 130.16831 10333 ft 262 kts 188°
2026-04-22 12:39 33.13803 130.16595 9431 ft 259 kts 187°
2026-04-22 12:39 33.12011 130.16479 8981 ft 257 kts 187°
2026-04-22 12:40 33.10229 130.16365 8564 ft 257 kts 186°
2026-04-22 12:40 33.08441 130.16250 8239 ft 257 kts 186°
2026-04-22 12:40 33.06686 130.16139 7986 ft 255 kts 186°
2026-04-22 12:40 33.04924 130.16027 7727 ft 252 kts 186°
2026-04-22 12:41 33.03181 130.15917 7459 ft 250 kts 186°
2026-04-22 12:41 33.01453 130.15807 7236 ft 247 kts 185°
2026-04-22 12:41 32.99745 130.15698 6992 ft 245 kts 185°
2026-04-22 12:41 32.98053 130.15583 6749 ft 242 kts 185°
2026-04-22 12:42 32.96383 130.15479 6515 ft 238 kts 185°
2026-04-22 12:42 32.94761 130.15383 6314 ft 236 kts 185°
2026-04-22 12:42 32.93128 130.15284 6081 ft 234 kts 184°
2026-04-22 12:42 32.91510 130.15179 5830 ft 232 kts 184°
2026-04-22 12:43 32.89908 130.15077 5605 ft 230 kts 184°
2026-04-22 12:43 32.88325 130.14978 5384 ft 226 kts 184°
2026-04-22 12:43 32.86759 130.14880 5177 ft 224 kts 184°
2026-04-22 12:43 32.85208 130.14783 4957 ft 222 kts 183°
2026-04-22 12:44 32.83676 130.14688 4767 ft 219 kts 183°
2026-04-22 12:44 32.82181 130.14595 4565 ft 212 kts 183°
2026-04-22 12:44 32.80740 130.14441 4322 ft 206 kts 194°
2026-04-22 12:44 32.79539 130.13601 4151 ft 204 kts 219°
2026-04-22 12:45 32.78553 130.12393 3935 ft 203 kts 224°
2026-04-22 12:45 32.77676 130.11084 3726 ft 206 kts 239°
2026-04-22 12:45 32.77461 130.09386 3529 ft 216 kts 277°
2026-04-22 12:45 32.77854 130.07660 3357 ft 218 kts 284°
2026-04-22 12:46 32.78352 130.05951 3162 ft 221 kts 292°
2026-04-22 12:46 32.79333 130.04535 2984 ft 228 kts 323°
2026-04-22 12:46 32.80578 130.03344 2680 ft 232 kts 317°
2026-04-22 12:46 32.81741 130.02041 2385 ft 226 kts 318°
2026-04-22 12:47 32.82856 130.00829 2095 ft 214 kts 320°
2026-04-22 12:47 32.83939 129.99668 1814 ft 205 kts 321°
2026-04-22 12:47 32.84975 129.98553 1535 ft 196 kts 321°
2026-04-22 12:47 32.85963 129.97493 1288 ft 186 kts 321°
2026-04-22 12:48 32.86894 129.96493 1036 ft 175 kts 320°
2026-04-22 12:48 32.87771 129.95554 812 ft 168 kts 320°
2026-04-22 12:48 32.88612 129.94651 587 ft 157 kts 318°
2026-04-22 12:48 32.89415 129.93788 415 ft 157 kts 317°
2026-04-22 12:49 32.90218 129.92926 199 ft 157 kts 315°
2026-04-22 12:49 32.91019 129.92067 22 ft 149 kts 312°
2026-04-22 12:49 32.91685 129.91353 13 ft 101 kts 317°
2026-04-22 12:49 32.92051 129.90958 17 ft 50 kts 318°
2026-04-22 12:50 32.92267 129.90731 14 ft 35 kts 318°
2026-04-22 12:50 32.92391 129.90680 13 ft 20 kts 35°
2026-04-22 12:50 32.92439 129.90814 11 ft 19 kts 118°
2026-04-22 12:50 32.92348 129.90924 13 ft 19 kts 135°
2026-04-22 12:51 32.92252 129.91023 13 ft 18 kts 135°
2026-04-22 12:51 32.92163 129.91120 11 ft 17 kts 138°
2026-04-22 12:51 32.92075 129.91213 10 ft 17 kts 139°
2026-04-22 12:51 32.91991 129.91304 9 ft 16 kts 136°
2026-04-22 12:52 32.91910 129.91391 7 ft 15 kts 139°
2026-04-22 12:52 32.91830 129.91473 9 ft 15 kts 139°
2026-04-22 12:52 32.91755 129.91553 9 ft 14 kts 138°
2026-04-22 12:52 32.91684 129.91630 10 ft 14 kts 137°
2026-04-22 12:53 32.91616 129.91703 12 ft 13 kts 137°
2026-04-22 12:53 32.91549 129.91774 14 ft 13 kts 138°
2026-04-22 12:53 32.91485 129.91841 15 ft 12 kts 139°
2026-04-22 12:53 32.91421 129.91907 13 ft 12 kts 139°
2026-04-22 12:54 32.91360 129.91974 13 ft 12 kts 136°
2026-04-22 12:54 32.91302 129.92039 11 ft 11 kts 132°
2026-04-22 12:54 32.91326 129.92119 10 ft 11 kts 49°
2026-04-22 12:54 32.91366 129.92172 11 ft 0 kts 47°
2026-04-22 12:55 32.91371 129.92178 12 ft 4 kts 47°
2026-04-22 12:55 32.91373 129.92181 12 ft 0 kts 47°